Total_Precipitation_Accumulation
0.05 0.11 0.29 0.57 1.26 1.56 1.32 0.75 0.55 0.43 0.44 0.46 0.47 0.46 0.51 0.60 0.93 1.35 0.99 0.62 0.23 0.13 0.20 0.41 0.61 0.52 0.49 0.51 0.51 0.54 0.50 0.47 0.48 0.48 0.48 0.52 0.51 0.52 0.56 0.64 0.68 0.78 0.89 0.89 0.82 0.86 0.78 0.78 0.84
0.08 0.15 0.36 0.85 1.54 1.53 1.15 0.64 0.48 0.37 0.41 0.40 0.36 0.41 0.54 0.61 0.48 0.55 0.71 0.57 0.21 0.10 0.11 0.15 0.38 0.46 0.45 0.48 0.48 0.50 0.49 0.47 0.47 0.54 0.49 0.50 0.56 0.61 0.63 0.59 0.61 0.71 0.80 0.76 0.74 0.68 0.72 0.75 0.82
0.10 0.18 0.39 0.86 1.01 1.01 0.82 0.52 0.43 0.34 0.44 0.59 0.50 0.42 0.55 0.73 0.55 0.51 0.54 0.33 0.18 0.12 0.10 0.18 0.34 0.36 0.40 0.46 0.46 0.46 0.47 0.48 0.47 0.53 0.47 0.52 0.56 0.66 0.72 0.67 0.66 0.72 0.75 0.75 0.75 0.71 0.76 0.73 0.81
0.10 0.23 0.43 0.55 0.44 0.41 0.43 0.42 0.43 0.46 0.66 0.80 0.66 0.56 0.62 0.59 0.54 0.47 0.39 0.26 0.19 0.18 0.15 0.23 0.36 0.37 0.39 0.44 0.45 0.44 0.44 0.46 0.49 0.55 0.53 0.56 0.58 0.69 0.69 0.69 0.71 0.71 0.75 0.83 0.86 0.80 0.79 0.78 0.78
0.10 0.29 0.55 0.41 0.25 0.25 0.26 0.31 0.47 0.53 0.77 0.86 0.63 0.70 0.81 0.73 0.63 0.57 0.43 0.39 0.35 0.39 0.38 0.36 0.45 0.45 0.44 0.44 0.46 0.44 0.44 0.46 0.51 0.56 0.56 0.60 0.62 0.69 0.70 0.72 0.73 0.67 0.70 0.81 0.93 0.88 0.85 0.88 0.93
0.10 0.22 0.37 0.29 0.19 0.15 0.19 0.27 0.41 0.54 0.75 0.84 0.70 0.96 1.03 1.00 0.90 0.82 0.76 0.81 0.76 0.78 0.72 0.65 0.66 0.61 0.56 0.53 0.54 0.53 0.51 0.47 0.51 0.57 0.58 0.59 0.63 0.65 0.67 0.70 0.72 0.69 0.68 0.78 0.87 0.89 0.88 0.91 0.96
0.09 0.18 0.24 0.17 0.11 0.13 0.19 0.26 0.43 0.61 0.76 0.98 0.96 1.11 1.16 1.30 1.18 1.07 1.05 1.11 1.16 1.13 1.07 0.89 0.75 0.68 0.65 0.71 0.67 0.61 0.56 0.54 0.55 0.61 0.58 0.56 0.60 0.58 0.58 0.67 0.74 0.70 0.72 0.78 0.84 0.85 0.91 0.90 0.90
0.05 0.09 0.14 0.09 0.06 0.10 0.17 0.25 0.39 0.59 0.83 0.97 0.98 1.09 1.15 1.17 1.17 1.27 1.37 1.48 1.67 1.54 1.36 1.07 0.89 0.91 0.77 0.72 0.74 0.70 0.63 0.62 0.62 0.66 0.64 0.68 0.72 0.71 0.75 0.78 0.87 0.82 0.80 0.81 0.89 0.95 0.93 0.94 0.94
0.04 0.06 0.08 0.07 0.03 0.07 0.16 0.32 0.46 0.51 0.67 1.00 1.22 1.07 0.94 1.02 1.34 1.59 1.93 1.99 2.09 1.95 1.53 1.15 1.08 1.16 1.05 0.87 0.79 0.96 0.88 0.84 0.87 0.95 0.96 1.18 1.49 1.24 1.21 1.01 1.11 1.06 1.05 1.07 1.16 1.21 1.22 1.17 1.06
0.03 0.06 0.06 0.03 0.02 0.04 0.15 0.38 0.54 0.65 0.99 1.32 1.49 1.29 1.07 1.07 1.52 1.88 2.06 2.17 1.88 1.91 1.85 1.53 1.29 1.23 1.26 1.10 1.11 1.52 1.48 1.42 1.57 1.64 1.59 1.94 1.96 1.74 1.25 1.21 1.50 1.48 1.55 1.64 1.85 1.99 1.77 1.48 1.30
0.02 0.03 0.02 0.03 0.02 0.06 0.19 0.23 0.31 0.58 1.20 1.59 1.79 1.41 1.17 1.25 1.60 2.10 2.26 2.19 1.91 1.90 1.81 1.85 1.68 1.52 1.49 1.59 1.50 1.66 1.88 1.94 2.04 1.96 1.97 2.20 1.85 1.59 1.42 1.60 1.95 1.97 2.03 2.10 2.31 2.47 1.94 1.95 2.26
0.02 0.02 0.01 0.02 0.02 0.04 0.11 0.20 0.35 0.66 1.15 1.42 1.31 1.16 1.18 1.38 1.60 2.15 2.50 2.38 2.24 2.16 2.06 2.32 2.23 2.12 2.12 1.98 1.95 1.77 1.73 1.76 1.86 1.96 1.91 2.06 2.06 1.95 1.94 2.07 2.12 2.27 2.42 2.66 2.52 2.67 2.63 2.69 2.54
0.01 0.01 0.01 0.01 0.02 0.04 0.09 0.20 0.33 0.56 0.84 0.91 0.81 0.98 1.43 1.52 1.76 2.27 2.84 2.85 2.76 2.60 2.67 2.83 2.88 2.97 2.78 2.52 2.30 1.89 1.86 1.77 1.72 1.79 1.79 1.99 2.24 2.29 2.40 2.20 2.24 2.02 2.14 2.49 2.78 2.79 2.99 3.13 2.99
0.01 0.01 0.02 0.03 0.05 0.06 0.11 0.23 0.38 0.76 0.76 0.69 0.81 1.13 1.50 1.88 2.00 2.37 3.04 3.34 3.29 3.25 3.43 3.43 3.46 3.49 3.29 2.89 2.62 2.31 2.01 2.00 1.80 1.78 1.86 2.31 2.54 2.49 2.57 2.46 2.41 2.10 2.09 2.41 2.78 2.85 3.13 3.15 3.16
0.01 0.04 0.10 0.10 0.08 0.10 0.16 0.50 0.66 0.82 0.78 0.77 0.99 1.22 1.69 2.26 2.46 2.72 3.15 3.50 3.73 3.95 4.10 4.29 4.21 3.90 3.88 3.54 2.86 2.35 2.08 1.90 1.95 2.06 2.13 2.37 2.54 2.71 2.86 2.78 2.42 2.18 2.25 2.46 2.50 2.63 3.09 2.97 2.92
0.02 0.07 0.25 0.21 0.10 0.12 0.23 0.72 0.82 0.85 0.88 0.95 1.17 1.49 1.83 2.31 2.37 2.61 3.01 3.59 4.17 4.55 4.93 5.11 4.75 4.62 4.59 4.23 3.63 3.07 2.75 2.52 2.48 2.44 2.26 2.10 2.31 2.43 2.63 2.41 2.04 2.11 2.32 2.48 2.48 2.49 2.87 2.99 3.00
0.06 0.10 0.21 0.21 0.14 0.14 0.25 0.65 0.66 0.58 0.92 1.31 1.54 1.70 1.84 2.00 2.10 2.33 2.71 3.45 4.27 4.87 5.57 5.95 6.10 5.59 5.17 4.57 4.11 3.59 3.24 3.02 2.76 2.45 2.18 1.91 1.73 1.66 1.88 1.85 1.77 1.78 2.03 2.08 1.85 2.09 2.39 2.57 2.71
0.06 0.09 0.16 0.20 0.17 0.17 0.31 0.57 0.68 0.60 0.89 1.25 1.30 1.57 1.69 1.69 1.88 2.28 2.82 3.34 4.20 4.99 5.69 6.08 6.27 5.73 4.98 4.63 4.54 4.15 3.58 3.16 2.78 2.38 2.11 1.75 1.58 1.41 1.59 1.58 1.45 1.45 1.58 1.64 1.83 2.12 2.19 2.09 2.14
0.04 0.09 0.17 0.18 0.18 0.24 0.41 0.67 0.79 0.78 0.84 0.99 1.11 1.30 1.35 1.39 1.65 2.13 2.78 3.44 4.23 5.34 6.00 6.11 5.81 5.09 4.54 4.10 3.82 3.51 3.22 2.93 2.45 2.03 1.78 1.66 1.55 1.47 1.61 1.45 1.46 1.38 1.43 1.44 1.53 1.74 1.82 1.60 1.75
0.05 0.10 0.17 0.17 0.14 0.16 0.38 0.73 0.83 0.88 0.95 0.95 1.01 1.10 1.02 1.17 1.52 2.13 2.91 3.73 4.38 4.93 5.28 5.33 4.93 4.16 3.66 3.35 3.25 2.97 2.72 2.37 2.15 1.88 1.81 1.57 1.47 1.44 1.34 1.44 1.26 1.22 1.37 1.34 1.43 1.64 1.65 1.45 1.56
0.08 0.09 0.15 0.18 0.15 0.17 0.38 0.88 1.08 1.00 0.98 0.97 0.87 0.86 0.94 1.14 1.70 2.48 3.31 4.06 4.40 4.41 4.18 3.88 3.67 3.26 3.11 3.02 2.81 2.58 2.50 2.19 2.00 1.78 1.65 1.40 1.24 1.17 1.16 1.17 1.09 1.14 1.04 1.20 1.38 1.48 1.64 1.60 1.41
0.09 0.07 0.06 0.08 0.13 0.34 0.47 0.96 1.14 1.13 1.08 0.95 0.91 0.93 1.04 1.30 1.85 2.58 3.13 3.37 3.51 3.43 3.13 2.92 2.83 2.73 2.66 2.55 2.40 2.09 1.89 1.85 1.72 1.60 1.57 1.44 1.28 1.21 1.16 1.07 1.12 1.12 0.99 1.22 1.05 1.18 1.46 1.56 1.38
0.06 0.04 0.04 0.08 0.19 0.35 0.49 0.80 1.16 1.15 1.22 0.83 0.69 0.80 0.89 1.11 1.42 1.66 1.87 2.03 2.15 2.18 2.33 2.36 2.43 2.54 2.44 2.38 2.33 2.18 1.91 1.87 1.84 1.82 1.87 1.72 1.53 1.33 1.11 1.11 1.21 1.24 1.08 1.12 1.14 1.30 1.33 1.36 1.35
0.04 0.06 0.13 0.22 0.37 0.72 0.70 0.83 1.19 1.18 1.04 0.64 0.45 0.49 0.69 0.81 0.88 0.98 1.08 1.21 1.44 1.49 1.67 1.83 1.90 2.05 2.18 2.17 2.04 1.99 1.92 1.95 1.95 1.89 1.73 1.53 1.41 1.32 1.19 1.23 1.38 1.32 1.26 1.23 1.19 1.22 1.26 1.40 1.48
0.05 0.10 0.32 0.65 1.00 1.06 0.63 0.73 1.13 1.04 0.73 0.46 0.37 0.34 0.38 0.54 0.69 0.84 0.97 1.08 1.27 1.20 1.25 1.44 1.50 1.53 1.67 1.68 1.64 1.70 1.83 1.88 1.74 1.62 1.54 1.41 1.20 1.17 1.23 1.25 1.37 1.33 1.36 1.28 1.37 1.38 1.32 1.39 1.45
0.06 0.07 0.19 0.37 0.48 0.64 0.66 1.14 1.37 0.80 0.50 0.35 0.31 0.27 0.28 0.43 0.60 0.71 0.71 0.78 0.90 0.86 0.94 1.06 1.20 1.28 1.32 1.40 1.45 1.45 1.57 1.59 1.52 1.57 1.48 1.36 1.14 1.05 1.07 1.14 1.18 1.21 1.25 1.23 1.53 1.42 1.42 1.47 1.40
0.06 0.05 0.07 0.10 0.18 0.46 0.83 1.18 1.14 0.68 0.51 0.34 0.29 0.27 0.27 0.33 0.48 0.54 0.46 0.47 0.60 0.70 0.76 0.82 1.00 1.13 1.13 1.25 1.33 1.28 1.35 1.44 1.50 1.52 1.44 1.27 1.26 1.13 1.14 1.15 1.29 1.38 1.40 1.42 1.59 1.55 1.50 1.61 1.45
0.07 0.07 0.08 0.11 0.19 0.40 0.75 1.21 1.43 1.02 0.57 0.39 0.38 0.37 0.35 0.32 0.38 0.40 0.38 0.36 0.43 0.56 0.72 0.81 0.93 1.04 1.06 1.16 1.16 1.03 1.18 1.30 1.45 1.43 1.37 1.33 1.35 1.27 1.31 1.33 1.40 1.47 1.44 1.45 1.59 1.58 1.63 1.69 1.59
0.10 0.09 0.10 0.12 0.13 0.23 0.57 0.87 0.76 0.74 0.56 0.54 0.50 0.44 0.40 0.35 0.37 0.37 0.33 0.31 0.32 0.42 0.61 0.74 0.87 0.96 0.99 1.07 1.15 1.20 1.20 1.14 1.25 1.29 1.29 1.34 1.38 1.30 1.33 1.40 1.48 1.46 1.51 1.62 1.71 1.58 1.62 1.71 1.84
0.11 0.12 0.12 0.14 0.13 0.13 0.28 0.47 0.47 0.64 0.62 0.59 0.59 0.55 0.51 0.36 0.32 0.33 0.34 0.36 0.36 0.38 0.49 0.62 0.75 0.86 0.93 1.02 1.14 1.21 1.31 1.24 1.22 1.24 1.30 1.35 1.46 1.50 1.46 1.49 1.52 1.42 1.45 1.62 1.70 1.68 1.70 1.71 1.73